GW5118 Weather Reports


time (UTC)temp
C
wind
direction
speed
KPH
gust
KPH
rain 1hr
cm
rain 24hr
cm
rain mn
cm
humidity
%
barometer
mb
20260510162637 22 253 3.2 6.4 0.00 0.00 0.00 46 1033.2
20260510162135 23 285 3.2 16.1 0.00 0.00 0.00 46 1033.2
20260510161630 22 282 1.6 4.8 0.00 0.00 0.00 50 1033.1
20260510161127 23 247 9.7 16.1 0.00 0.00 0.00 46 1033.1
20260510160625 22 280 3.2 9.7 0.00 0.00 0.00 47 1033.1
20260510160124 22 234 6.4 11.3 0.00 0.00 0.00 47 1033.2
20260510155621 23 229 3.2 6.4 0.00 0.00 0.00 47 1033.2
20260510155117 23 268 8.0 14.5 0.00 0.00 0.00 44 1033.2
20260510154613 24 260 3.2 9.7 0.00 0.00 0.00 45 1033.1
20260510154108 23 283 1.6 9.7 0.00 0.00 0.00 45 1033.1
20260510153603 23 296 8.0 11.3 0.00 0.00 0.00 46 1033.1
20260510153100 23 184 3.2 4.8 0.00 0.00 0.00 48 1033.3
20260510152557 23 259 4.8 9.7 0.00 0.00 0.00 47 1033.3
20260510152054 23 313 1.6 4.8 0.00 0.00 0.00 53 1032.9
20260510151550 22 180 6.4 16.1 0.00 0.00 0.00 51 1033.2
20260510151048 23 240 1.6 3.2 0.00 0.00 0.00 50 1033.3
20260510150547 22 184 8.0 12.9 0.00 0.00 0.00 52 1033.3
20260510150044 22 288 1.6 6.4 0.00 0.00 0.00 54 1033.3
20260510145540 22 220 4.8 6.4 0.00 0.00 0.00 54 1033.2
20260510145037 21 240 1.6 3.2 0.00 0.00 0.00 55 1033.2
20260510144534 21 185 4.8 4.8 0.00 0.00 0.00 58 1033.3
20260510144030 21 195 3.2 3.2 0.00 0.00 0.00 59 1033.5
20260510143525 21 220 0.0 3.2 0.00 0.00 0.00 59 1033.2
20260510143022 20 237 3.2 3.2 0.00 0.00 0.00 59 1033.2
20260510142519 21 230 4.8 4.8 0.00 0.00 0.00 58 1033.4
20260510142015 20 153 0.0 1.6 0.00 0.00 0.00 62 1033.3
20260510141512 20 96 1.6 4.8 0.00 0.00 0.00 65 1033.3
20260510141009 19 199 1.6 3.2 0.00 0.00 0.00 64 1033.3
20260510140505 19 130 3.2 4.8 0.00 0.00 0.00 65 1033.3
20260510140000 19 49 3.2 3.2 0.00 0.00 0.00 67 1033.5
20260510135455 19 100 1.6 3.2 0.00 0.00 0.00 68 1033.5
20260510134953 18 194 0.0 3.2 0.00 0.00 0.00 69 1033.4
20260510134450 17 105 0.0 1.6 0.00 0.00 0.00 71 1033.6
20260510133946 17 357 1.6 3.2 0.00 0.00 0.00 71 1033.5
20260510133442 16 61 1.6 3.2 0.00 0.00 0.00 76 1033.6
20260510132938 16 85 1.6 3.2 0.00 0.00 0.00 77 1033.8
20260510132435 15 55 1.6 1.6 0.00 0.00 0.00 77 1033.7
20260510131932 15 20 1.6 1.6 0.00 0.00 0.00 77 1033.9
20260510131429 15 351 0.0 0.0 0.00 0.00 0.00 78 1033.6
20260510130926 13 356 0.0 3.2 0.00 0.00 0.00 83 1033.5
20260510130423 13 48 0.0 3.2 0.00 0.00 0.00 85 1033.6
20260510125920 12 26 0.0 1.6 0.00 0.00 0.00 87 1033.6
20260510125410 11 40 0.0 1.6 0.00 0.00 0.00 93 1033.5
20260510124908 11 31 0.0 1.6 0.00 0.00 0.00 96 1033.5
20260510124404 11 47 3.2 3.2 0.00 0.00 0.00 98 1033.5
20260510123900 10 11 0.0 0.0 0.00 0.00 0.00 99 1033.6
20260510123356 10 85 1.6 1.6 0.00 0.00 0.00 99 1033.5
20260510122853 9 19 0.0 1.6 0.00 0.00 0.00 99 1033.3
20260510122348 9 17 1.6 1.6 0.00 0.00 0.00 99 1033.5
20260510121845 9 17 0.0 1.6 0.00 0.00 0.00 99 1033.5
20260510121343 8 26 0.0 0.0 0.00 0.00 0.00 99 1033.2
20260510120839 8 31 0.0 0.0 0.00 0.00 0.00 99 1033.2
20260510120337 8 48 0.0 0.0 0.00 0.00 0.00 99 1033.2
20260510115832 8 65 0.0 1.6 0.00 0.00 0.00 99 1033.1
20260510115329 7 113 0.0 0.0 0.00 0.00 0.00 99 1033.3
20260510114825 7 113 0.0 0.0 0.00 0.00 0.00 99 1033.0
20260510114323 7 148 0.0 0.0 0.00 0.00 0.00 99 1033.1
20260510113817 7 162 0.0 0.0 0.00 0.00 0.00 99 1033.1
20260510113314 6 193 0.0 0.0 0.00 0.00 0.00 99 1033.0
20260510112811 6 195 0.0 0.0 0.00 0.00 0.00 99 1033.1
20260510112308 6 194 0.0 0.0 0.00 0.00 0.00 99 1033.1
20260510111804 6 194 0.0 0.0 0.00 0.00 0.00 99 1032.9
20260510111301 5 194 0.0 0.0 0.00 0.00 0.00 99 1033.0
20260510110800 5 194 0.0 0.0 0.00 0.00 0.00 99 1032.8
20260510110258 5 199 0.0 0.0 0.00 0.00 0.00 99 1032.7
20260510105759 5 199 0.0 0.0 0.00 0.00 0.00 99 1032.7
20260510105253 5 199 0.0 0.0 0.00 0.00 0.00 99 1032.5
20260510104750 5 210 0.0 0.0 0.00 0.00 0.00 99 1032.4
20260510104248 5 247 0.0 0.0 0.00 0.00 0.00 99 1032.3
20260510103744 5 248 0.0 0.0 0.00 0.00 0.00 99 1032.3
20260510103241 5 242 0.0 0.0 0.00 0.00 0.00 99 1032.1
20260510102741 5 242 0.0 0.0 0.00 0.00 0.00 99 1032.0
20260510102236 5 227 0.0 0.0 0.00 0.00 0.00 99 1032.2
20260510101734 5 145 0.0 0.0 0.00 0.00 0.00 99 1032.0
20260510101233 5 145 0.0 0.0 0.00 0.00 0.00 99 1031.9
20260510100728 5 145 0.0 0.0 0.00 0.00 0.00 99 1031.9
20260510100226 5 145 0.0 0.0 0.00 0.00 0.00 99 1031.9
20260510095721 5 146 0.0 0.0 0.00 0.00 0.00 99 1031.8
20260510095217 5 146 0.0 0.0 0.00 0.00 0.00 99 1031.8
20260510094716 5 146 0.0 0.0 0.00 0.00 0.00 99 1031.7
20260510094212 5 146 0.0 0.0 0.00 0.00 0.00 99 1031.7
20260510093708 5 146 0.0 0.0 0.00 0.00 0.00 99 1031.9
20260510093205 5 146 0.0 0.0 0.00 0.00 0.00 99 1031.7
20260510092701 5 146 0.0 0.0 0.00 0.00 0.00 99 1031.6
20260510092157 5 146 0.0 0.0 0.00 0.00 0.00 99 1031.8
20260510091653 5 146 0.0 0.0 0.00 0.00 0.00 99 1031.6
20260510091149 5 146 0.0 0.0 0.00 0.00 0.00 99 1031.7
20260510090646 5 145 0.0 0.0 0.00 0.00 0.00 99 1031.4
20260510090143 5 145 0.0 0.0 0.00 0.00 0.00 99 1031.5
20260510085638 5 145 0.0 0.0 0.00 0.00 0.00 99 1031.4
20260510085133 5 175 0.0 0.0 0.00 0.00 0.00 99 1031.5
20260510084630 6 210 0.0 0.0 0.00 0.00 0.00 99 1031.3
20260510084126 6 210 0.0 0.0 0.00 0.00 0.00 99 1031.5
20260510083623 6 210 0.0 0.0 0.00 0.00 0.00 99 1031.0
20260510083119 6 210 0.0 0.0 0.00 0.00 0.00 99 1031.2
20260510082615 6 210 0.0 0.0 0.00 0.00 0.00 99 1031.4
20260510082111 6 210 0.0 0.0 0.00 0.00 0.00 99 1031.3
20260510081606 6 211 0.0 0.0 0.00 0.00 0.00 98 1030.9
20260510081102 6 210 0.0 0.0 0.00 0.00 0.00 98 1031.0
20260510080601 6 210 0.0 0.0 0.00 0.00 0.00 98 1030.8
20260510080058 6 210 0.0 1.6 0.00 0.00 0.00 98 1030.8
20260510075555 6 203 1.6 3.2 0.00 0.00 0.00 98 1030.5
20260510075052 6 190 3.2 3.2 0.00 0.00 0.00 98 1030.7
20260510074550 7 55 0.0 0.0 0.00 0.00 0.00 98 1030.6
20260510074045 7 55 0.0 0.0 0.00 0.00 0.00 98 1030.7
20260510073541 7 55 0.0 0.0 0.00 0.00 0.00 98 1030.4
20260510073039 7 55 0.0 0.0 0.00 0.00 0.00 98 1030.6
20260510072535 7 55 0.0 0.0 0.00 0.00 0.00 98 1030.4
20260510072031 7 55 0.0 0.0 0.00 0.00 0.00 98 1030.6
20260510071527 7 55 0.0 0.0 0.00 0.00 0.00 98 1030.6
20260510071025 7 55 0.0 1.6 0.00 0.00 0.00 98 1030.6
20260510070522 7 257 0.0 0.0 0.00 0.00 0.00 98 1030.6
20260510070019 7 257 0.0 0.0 0.00 0.00 0.00 98 1030.6
20260510065515 7 256 0.0 0.0 0.00 0.00 0.00 98 1030.5
20260510065011 7 256 0.0 0.0 0.00 0.00 0.00 98 1030.7
20260510064508 7 256 0.0 0.0 0.00 0.00 0.00 97 1030.6
20260510064005 7 248 0.0 0.0 0.00 0.00 0.00 97 1030.7
20260510063501 7 221 0.0 1.6 0.00 0.00 0.00 97 1030.7
20260510062959 7 223 1.6 3.2 0.00 0.00 0.00 97 1030.7
20260510062454 7 192 3.2 3.2 0.00 0.00 0.00 97 1030.5
20260510061949 8 196 3.2 3.2 0.00 0.00 0.00 97 1030.6
20260510061446 8 223 1.6 3.2 0.00 0.00 0.00 97 1030.4
20260510060943 8 224 0.0 0.0 0.00 0.00 0.00 96 1030.4
20260510060440 8 224 0.0 0.0 0.00 0.00 0.00 96 1030.3
20260510055936 8 224 0.0 0.0 0.00 0.00 0.00 96 1030.5
20260510055432 8 224 0.0 0.0 0.00 0.00 0.00 96 1030.4
20260510054931 8 224 0.0 0.0 0.00 0.00 0.00 96 1030.5
20260510054431 8 224 0.0 0.0 0.00 0.00 0.00 95 1030.6
20260510053926 8 224 0.0 0.0 0.00 0.00 0.00 95 1030.7
20260510053422 8 223 0.0 0.0 0.00 0.00 0.00 95 1030.6
20260510052918 8 223 0.0 0.0 0.00 0.00 0.00 95 1030.5
20260510052414 8 223 0.0 0.0 0.00 0.00 0.00 95 1030.6
20260510051911 8 223 0.0 0.0 0.00 0.00 0.00 95 1030.6
20260510051407 8 223 0.0 0.0 0.00 0.00 0.00 95 1030.5
20260510050904 9 223 0.0 0.0 0.00 0.00 0.00 95 1030.5
20260510050400 9 223 1.6 1.6 0.00 0.00 0.00 95 1030.6
20260510045857 9 223 0.0 0.0 0.00 0.00 0.00 94 1030.6
20260510045354 9 223 0.0 0.0 0.00 0.00 0.00 94 1030.7
20260510044851 9 223 0.0 0.0 0.00 0.00 0.00 93 1030.7
20260510044348 9 223 0.0 0.0 0.00 0.00 0.00 93 1030.6
20260510043844 9 223 0.0 1.6 0.00 0.00 0.00 93 1030.6
20260510043340 9 223 0.0 0.0 0.00 0.00 0.00 92 1030.6
20260510042839 9 223 0.0 0.0 0.00 0.00 0.00 92 1030.5
20260510042334 10 223 0.0 0.0 0.00 0.00 0.00 91 1030.6
20260510041831 10 223 1.6 1.6 0.00 0.00 0.00 91 1030.6
20260510041328 10 223 0.0 0.0 0.00 0.00 0.00 91 1030.3
20260510040825 10 222 0.0 0.0 0.00 0.00 0.00 91 1030.4
20260510040322 10 222 0.0 0.0 0.00 0.00 0.00 90 1030.4
20260510035817 10 222 0.0 0.0 0.00 0.00 0.00 90 1030.4
20260510035314 10 223 0.0 1.6 0.00 0.00 0.00 90 1030.4
20260510034809 10 223 1.6 3.2 0.00 0.00 0.00 89 1030.3
20260510034307 11 224 1.6 3.2 0.00 0.00 0.00 88 1030.4
20260510033803 11 261 0.0 0.0 0.00 0.00 0.00 88 1030.3
20260510033301 11 261 1.6 3.2 0.00 0.00 0.00 88 1030.3
20260510032758 11 261 1.6 1.6 0.00 0.00 0.00 88 1030.4
20260510032254 11 261 0.0 1.6 0.00 0.00 0.00 87 1030.3
20260510031750 11 213 0.0 0.0 0.00 0.00 0.00 86 1030.5
20260510031246 11 213 0.0 1.6 0.00 0.00 0.00 86 1030.2
20260510030745 11 194 1.6 3.2 0.00 0.00 0.00 85 1030.1
20260510030242 11 198 0.0 0.0 0.00 0.00 0.00 85 1030.3
20260510025739 11 198 0.0 0.0 0.00 0.00 0.00 84 1030.3
20260510025237 11 198 0.0 0.0 0.00 0.00 0.00 83 1030.4
20260510024728 12 198 0.0 0.0 0.00 0.00 0.00 83 1030.3
20260510024225 12 198 0.0 0.0 0.00 0.00 0.00 81 1030.3
20260510023720 12 198 0.0 1.6 0.00 0.00 0.00 81 1030.0
20260510023218 12 198 1.6 3.2 0.00 0.00 0.00 81 1030.1
20260510022714 12 198 1.6 3.2 0.00 0.00 0.00 80 1029.9
20260510022208 13 213 1.6 1.6 0.00 0.00 0.00 78 1029.9
20260510021703 13 213 0.0 0.0 0.00 0.00 0.00 78 1029.8
20260510021201 13 213 1.6 1.6 0.00 0.00 0.00 78 1029.9
20260510020656 13 213 1.6 1.6 0.00 0.00 0.00 77 1029.8
20260510020151 13 214 1.6 3.2 0.00 0.00 0.00 76 1029.4
20260510015647 13 224 1.6 1.6 0.00 0.00 0.00 75 1029.6
20260510015144 13 217 1.6 3.2 0.00 0.00 0.00 75 1029.2
20260510014644 13 227 1.6 1.6 0.00 0.00 0.00 74 1029.2
20260510014142 13 227 1.6 3.2 0.00 0.00 0.00 74 1029.0
20260510013637 14 195 3.2 3.2 0.00 0.00 0.00 72 1029.0
20260510013133 15 213 1.6 1.6 0.00 0.00 0.00 70 1028.9
20260510012633 15 214 0.0 0.0 0.00 0.00 0.00 69 1029.1
20260510012129 15 214 0.0 0.0 0.00 0.00 0.00 68 1028.9
20260510011629 15 214 1.6 3.2 0.00 0.00 0.00 67 1028.8
20260510011125 15 222 0.0 1.6 0.00 0.00 0.00 66 1028.6
20260510010621 16 223 0.0 1.6 0.00 0.00 0.00 65 1028.7
20260510010119 16 221 3.2 3.2 0.00 0.00 0.00 63 1028.5
20260510005614 16 216 1.6 3.2 0.00 0.00 0.00 62 1028.4
20260510005112 16 238 0.0 0.0 0.00 0.00 0.00 61 1028.2
20260510004610 16 235 0.0 0.0 0.00 0.00 0.00 60 1028.2
20260510004108 16 235 0.0 0.0 0.00 0.00 0.00 60 1028.3
20260510003604 17 235 0.0 0.0 0.00 0.00 0.00 59 1028.4
20260510003100 17 235 0.0 1.6 0.00 0.00 0.00 58 1028.4
20260510002555 17 237 3.2 3.2 0.00 0.00 0.00 58 1028.3
20260510002052 17 239 1.6 1.6 0.00 0.00 0.00 57 1028.4
20260510001549 17 242 1.6 1.6 0.00 0.00 0.00 57 1028.3
20260510001048 18 229 3.2 3.2 0.00 0.00 0.00 56 1028.1
20260510000548 18 229 1.6 9.7 0.00 0.00 0.00 56 1027.8
20260510000044 18 250 1.6 6.4 0.00 0.00 0.00 55 1027.9
20260509235541 18 242 1.6 3.2 0.00 0.00 0.00 54 1027.8
20260509235038 18 223 0.0 1.6 0.00 0.00 0.00 54 1027.7
20260509234534 19 240 1.6 3.2 0.00 0.00 0.00 52 1027.6
20260509234032 20 243 0.0 1.6 0.00 0.00 0.00 51 1027.6
20260509233529 20 257 1.6 3.2 0.00 0.00 0.00 51 1027.5
20260509233026 20 220 3.2 3.2 0.00 0.00 0.00 50 1027.5
20260509232523 20 239 1.6 6.4 0.00 0.00 0.00 49 1027.4
20260509232020 20 254 3.2 6.4 0.00 0.00 0.00 48 1027.4
20260509231516 20 257 4.8 9.7 0.00 0.00 0.00 49 1027.5
20260509231014 20 259 1.6 9.7 0.00 0.00 0.00 49 1027.4
20260509230510 20 247 3.2 6.4 0.00 0.00 0.00 49 1027.4
20260509230008 20 265 4.8 14.5 0.00 0.00 0.00 48 1027.3
20260509225503 20 201 8.0 11.3 0.00 0.00 0.00 48 1027.4
20260509224959 20 238 4.8 4.8 0.00 0.00 0.00 48 1027.5
20260509224454 21 239 4.8 6.4 0.00 0.00 0.00 47 1027.6
20260509223952 21 243 3.2 12.9 0.00 0.00 0.00 47 1027.5
20260509223448 21 229 3.2 4.8 0.00 0.00 0.00 46 1027.7
20260509222946 21 275 3.2 11.3 0.00 0.00 0.00 47 1027.6
20260509222441 21 268 6.4 9.7 0.00 0.00 0.00 47 1027.6
20260509221937 21 229 8.0 11.3 0.00 0.00 0.00 46 1027.7
20260509221434 21 248 8.0 12.9 0.00 0.00 0.00 45 1027.8
20260509220929 21 272 3.2 9.7 0.00 0.00 0.00 46 1027.7
20260509220426 21 253 3.2 4.8 0.00 0.00 0.00 48 1027.8
20260509215922 21 242 3.2 4.8 0.00 0.00 0.00 46 1027.6
20260509215417 21 272 6.4 11.3 0.00 0.00 0.00 45 1027.7
20260509214915 22 217 3.2 9.7 0.00 0.00 0.00 46 1027.7
20260509214412 21 287 4.8 12.9 0.00 0.00 0.00 45 1027.6
20260509213909 21 234 3.2 9.7 0.00 0.00 0.00 46 1027.4
20260509213405 21 238 9.7 17.7 0.00 0.00 0.00 45 1027.6
20260509212903 21 310 3.2 12.9 0.00 0.00 0.00 46 1027.3
20260509212400 21 247 4.8 6.4 0.00 0.00 0.00 47 1027.3
20260509211856 20 229 1.6 3.2 0.00 0.00 0.00 47 1027.4
20260509211352 20 232 4.8 9.7 0.00 0.00 0.00 47 1027.3
20260509210848 21 269 3.2 14.5 0.00 0.00 0.00 46 1027.3
20260509210346 21 263 4.8 6.4 0.00 0.00 0.00 46 1027.2
20260509205846 21 271 3.2 3.2 0.00 0.00 0.00 46 1027.2
20260509205340 20 252 3.2 11.3 0.00 0.00 0.00 47 1027.2
20260509204837 20 232 6.4 9.7 0.00 0.00 0.00 46 1027.1
20260509204333 20 253 6.4 11.3 0.00 0.00 0.00 47 1027.1
20260509203830 21 232 0.0 3.2 0.00 0.00 0.00 48 1027.0
20260509203327 21 228 3.2 11.3 0.00 0.00 0.00 47 1026.8
20260509202823 20 253 3.2 9.7 0.00 0.00 0.00 48 1026.8
20260509202319 20 226 11.3 16.1 0.00 0.00 0.00 47 1026.9
20260509201818 20 242 9.7 11.3 0.00 0.00 0.00 46 1026.7
20260509201316 21 226 8.0 16.1 0.00 0.00 0.00 45 1026.9
20260509200812 21 206 8.0 9.7 0.00 0.00 0.00 46 1026.7
20260509200307 21 210 3.2 9.7 0.00 0.00 0.00 45 1026.6
20260509195804 20 291 3.2 4.8 0.00 0.00 0.00 47 1026.8
20260509195259 20 201 4.8 14.5 0.00 0.00 0.00 47 1026.7
20260509194759 20 249 8.0 9.7 0.00 0.00 0.00 43 1026.8
20260509194255 21 263 8.0 14.5 0.00 0.00 0.00 45 1026.6
20260509193752 21 203 3.2 11.3 0.00 0.00 0.00 45 1026.6
20260509193247 22 224 11.3 16.1 0.00 0.00 0.00 43 1026.7
20260509192743 22 172 17.7 24.1 0.00 0.00 0.00 41 1026.4
20260509192243 21 213 3.2 12.9 0.00 0.00 0.00 45 1026.7
20260509191739 21 222 8.0 11.3 0.00 0.00 0.00 44 1026.7
20260509191236 21 238 3.2 12.9 0.00 0.00 0.00 42 1026.4
20260509190732 21 219 6.4 9.7 0.00 0.00 0.00 42 1026.6
20260509190229 21 248 6.4 12.9 0.00 0.00 0.00 42 1026.7
20260509185726 21 280 4.8 9.7 0.00 0.00 0.00 43 1026.4
20260509185222 21 220 4.8 9.7 0.00 0.00 0.00 42 1026.6
20260509184720 21 240 6.4 17.7 0.00 0.00 0.00 40 1026.8
20260509184217 21 271 6.4 17.7 0.00 0.00 0.00 43 1026.7
20260509183713 21 181 6.4 11.3 0.00 0.00 0.00 42 1026.7
20260509183209 20 222 3.2 14.5 0.00 0.00 0.00 42 1026.8
20260509182705 22 261 9.7 17.7 0.00 0.00 0.00 40 1026.6
20260509182203 21 267 1.6 6.4 0.00 0.00 0.00 43 1026.4
20260509181700 21 250 1.6 9.7 0.00 0.00 0.00 44 1026.6
20260509181158 21 246 3.2 11.3 0.00 0.00 0.00 43 1026.7
20260509180654 20 213 3.2 6.4 0.00 0.00 0.00 46 1026.8
20260509180150 21 245 6.4 11.3 0.00 0.00 0.00 43 1026.8
20260509175647 21 244 8.0 14.5 0.00 0.00 0.00 41 1026.8
20260509175144 21 235 1.6 14.5 0.00 0.00 0.00 43 1026.7
20260509174640 21 268 6.4 9.7 0.00 0.00 0.00 42 1026.8
20260509174139 21 227 3.2 9.7 0.00 0.00 0.00 42 1026.9
20260509173636 21 270 9.7 14.5 0.00 0.00 0.00 44 1027.0
20260509173131 20 180 4.8 12.9 0.00 0.00 0.00 45 1027.0
20260509172628 20 247 4.8 11.3 0.00 0.00 0.00 46 1027.0
20260509172125 20 216 6.4 17.7 0.00 0.00 0.00 47 1027.2
20260509171620 20 214 9.7 16.1 0.00 0.00 0.00 48 1027.0
20260509171117 20 195 3.2 12.9 0.00 0.00 0.00 46 1027.2
20260509170613 20 196 4.8 20.9 0.00 0.00 0.00 45 1027.3
20260509170109 20 240 4.8 14.5 0.00 0.00 0.00 47 1027.3
20260509165608 20 242 8.0 12.9 0.00 0.00 0.00 50 1027.4
20260509165103 20 208 6.4 9.7 0.00 0.00 0.00 52 1027.3
20260509164600 20 169 6.4 11.3 0.00 0.00 0.00 52 1027.4
20260509164055 21 159 3.2 17.7 0.00 0.00 0.00 52 1027.5
20260509163554 20 41 1.6 6.4 0.00 0.00 0.00 55 1027.6
20260509163049 20 253 8.0 11.3 0.00 0.00 0.00 53 1027.6